Location: Unspecified
(42.9300°N, 71.1866°W)
Time: 05:17:05
(UTC-05:00)

GENESIS II - Visible Passes

Search period start: 29 January 2015 00:00
Search period end: 08 February 2015 00:00
Orbit: 514 x 544 km, 64.5° (Epoch: 27 January)

Date Brightness Start Highest point End Pass type
(mag) Time Alt. Az. Time Alt. Az. Time Alt. Az.
29 Jan 5.8 18:43:55 10° NNW 18:46:03 23° N 18:46:03 23° N visible
30 Jan 5.2 18:32:23 10° NNW 18:35:37 32° NNE 18:35:37 32° NNE visible
30 Jan 7.5 20:10:35 10° WNW 20:10:56 12° WNW 20:10:56 12° WNW visible
31 Jan 4.9 18:20:52 10° NNW 18:24:39 37° NE 18:25:24 34° ENE visible
31 Jan 7.1 19:59:14 10° WNW 20:00:44 17° W 20:00:44 17° W visible
01 Feb 4.7 18:09:21 10° NNW 18:13:12 41° NE 18:15:27 22° ESE visible
01 Feb 6.7 19:47:55 10° WNW 19:50:48 20° WSW 19:50:48 20° WSW visible
02 Feb 4.6 17:57:48 10° NNW 18:01:44 46° NE 18:05:40 10° SE visible
02 Feb 6.9 19:36:37 10° WNW 19:39:26 18° WSW 19:41:17 13° SW visible
03 Feb 4.4 17:46:17 10° NNW 17:50:15 52° NE 17:54:14 10° SE visible
03 Feb 7.2 19:25:22 10° WNW 19:27:54 16° WSW 19:30:18 10° SSW visible
04 Feb 4.3 17:34:45 10° NNW 17:38:46 58° NE 17:42:47 10° SE visible
04 Feb 7.4 19:14:09 10° WNW 19:16:21 14° WSW 19:18:25 10° SW visible
05 Feb 7.5 19:03:02 10° W 19:04:49 12° WSW 19:06:24 10° SW visible
06 Feb 7.8 18:52:08 10° W 18:53:14 11° WSW 18:54:07 10° WSW visible
